Regional Weather Roundup
Issued by NWS

Home | Current Version | Previous Version | Text Only | Print | Product List | Glossary Off
Versions: 1 2 3 4 5 6 7 8 9 10 11 12 13 14 15 16 17 18 19 20 21 22 23 24 25 26 27 28 29 30 31 32 33 34 35 36 37 38 39 40 41 42 43 44 45 46 47 48 49 50

000
ASUS43 KLMK 201610
RWRKY
KENTUCKY REGIONAL WEATHER ROUNDUP
NATIONAL WEATHER SERVICE LOUISVILLE KY
1100 AM EST THU NOV 20 2014

NOTE "FAIR" INDICATES FEW OR NO CLOUDS BELOW 12,000 FEET
WITH NO SIGNIFICANT WEATHER AND/OR OBSTRUCTIONS TO VISIBILITY.

KYZ001>023-026-027-061>063-070>075-201700-
WESTERN AND SOUTH CENTRAL KENTUCKY

CITY           SKY/WX    TMP DP  RH WIND       PRES   REMARKS
PADUCAH        SUNNY     35  21  56 VRB6      30.30R WCI  30
HENDERSON      PTSUNNY   30  19  64 W12       30.30R WCI  21
OWENSBORO      MOSUNNY   31  18  58 NW12      30.29R WCI  22
HOPKINSVILLE   NOT AVBL
BOWLING GREEN  SUNNY     36  18  48 W9        30.27S WCI  29
GLASGOW        SUNNY     35  20  54 W9        30.25S WCI  28
$$

KYZ024-025-028>034-038-045-046-053-201700-
NORTH CENTRAL KENTUCKY

CITY           SKY/WX    TMP DP  RH WIND       PRES   REMARKS
LOUISVILLE/SDF PTSUNNY   30  14  51 W16       30.25R WCI  19
LOUISVILLE/LOU MOSUNNY   28  12  51 W12       30.25R WCI  18
FORT KNOX      CLOUDY    28  16  60 W9        30.23R WCI  20
$$

KYZ035>037-039>044-047>052-055>060-089>105-201700-
NORTHEAST KENTUCKY

CITY           SKY/WX    TMP DP  RH WIND       PRES   REMARKS
LEXINGTON      CLOUDY    27  16  63 W14       30.20R WCI  16
COVINGTON      MOSUNNY   28  13  53 W13       30.17R WCI  17
FRANKFORT      SUNNY     28  13  53 W9G21     30.21S WCI  19
$$

KYZ054-064>069-076>088-106>120-201700-
SOUTHEAST KENTUCKY

CITY           SKY/WX    TMP DP  RH WIND       PRES   REMARKS
JACKSON        MOSUNNY   38  21  50 W14G23    30.14S WCI  30
LONDON         SUNNY     38  24  57 W12       30.18S WCI  30
SOMERSET       SUNNY     36  21  55 NW13      30.22S WCI  27
MIDDLESBORO    CLOUDY    42  28  57 W6        30.17S
MONTICELLO     SUNNY     39  24  55 SW9       30.24F WCI  33
$$




USA.gov is the U.S. government's official web portal to all federal, state and local government web resources and services.